#timestamp,LO_Frequency,Hit,StdDev 
1538546415.3,286047003.0,N
1538546435.1,286047004.5,N
1538546455.9,286047009.1,Y
1538546475.7,286047006.0,P
1538546495.6,286047005.0,N
1538546515.4,286047003.8,N
1538546535.2,286047004.3,Y
1538546555.1,286046997.4,P
1538546556.0,286046997.4,N
1538546575.8,286046997.1,N
1538546595.6,286046998.3,N
1538546615.5,286046997.7,N
1538546635.3,286046997.4,N
1538546655.2,286046999.1,N
1538546675.9,286046997.4,N
1538546695.7,286046995.7,N
1538546715.6,286046996.2,N
1538546735.4,286046997.9,N
1538546755.2,286046995.1,N
1538546775.1,286046997.3,N
1538546776.0,286046997.3,N
1538546795.8,286046997.6,N
1538546815.7,286046997.9,N
1538546835.5,286046997.5,N
1538546855.3,286046997.3,N
1538546875.2,286047000.4,N
1538546895.0,286046999.8,N
1538546895.9,286046999.8,N
1538546915.7,286047000.6,N
1538546935.6,286047000.8,N
1538546955.4,286046998.4,N
1538546975.3,286046999.1,N
1538546995.1,286046997.0,N
1538546996.0,286046997.0,N
1538547015.8,286047000.7,N
1538547035.7,286046998.7,N
1538547055.5,286046996.7,N
1538547075.3,286046997.2,N
1538547095.2,286046998.9,N
1538547115.0,286047000.8,N
1538547115.9,286047000.8,N
1538547135.8,286047000.1,N
1538547155.6,286047001.8,N
1538547175.4,286046998.4,N
1538547195.3,286046998.8,N
1538547215.1,286046997.4,N
1538547216.0,286046997.4,N
1538547235.8,286046998.6,N
1538547255.7,286047000.2,N
1538547275.5,286047001.2,N
1538547295.3,286046997.0,N
1538547315.2,286046997.1,N
1538547335.0,286047000.7,N
1538547335.9,286047000.7,N
1538547355.8,286046997.3,N
1538547375.6,286046995.3,Y
1538547395.4,286046996.8,P
1538547415.3,286046996.8,N
1538547435.1,286046995.4,P
1538547455.8,286046997.5,N
1538547475.7,286047001.8,N
1538547495.5,286047000.1,N
1538547515.4,286047000.3,N
1538547535.2,286046998.5,N
1538547555.0,286046998.1,N
1538547555.9,286046998.1,N
1538547575.8,286047002.5,N
1538547595.6,286047003.9,N
1538547615.4,286046999.9,N
1538547635.3,286047000.3,N
1538547655.1,286047000.3,N
1538547675.9,286047000.0,N
1538547695.7,286046999.9,N
1538547715.5,286047003.7,N
1538547735.4,286047004.4,N
1538547755.2,286047000.6,N
1538547775.0,286046998.1,N
1538547775.9,286046998.1,N
1538547795.8,286046998.7,N
1538547815.6,286047002.2,N
1538547835.4,286046998.6,N
1538547855.3,286046999.5,N
1538547875.1,286046999.3,N
1538547895.9,286046999.2,N
1538547915.7,286046996.5,N
1538547935.5,286046997.0,N
1538547955.4,286046999.4,N
1538547975.2,286046998.8,N
1538547995.0,286046997.4,N
1538547995.9,286046997.4,N
1538548015.8,286046997.1,N
1538548035.6,286046997.4,N
1538548055.5,286046996.6,N
1538548075.3,286046998.2,N
1538548095.1,286047002.4,N
1538548115.9,286047001.0,N
1538548135.7,286047000.8,N
1538548155.5,286046997.7,N
1538548175.4,286046997.6,N
1538548195.2,286046995.6,N
1538548215.1,286046995.1,N
1538548216.0,286046995.1,N
1538548265.8,286046995.5,E
1538548275.7,286046999.4,N
1538548295.6,286047003.1,P
1538548315.4,286047002.5,N
1538548335.3,286047004.1,N
1538548355.1,286047007.6,Y
1538548356.0,286047007.6,P
1538548375.8,286047004.2,N
1538548395.7,286047002.0,N
1538548415.5,286047000.4,N
1538548435.3,286047001.1,N
1538548455.2,286047002.7,N
1538548475.0,286047002.2,N
1538548475.9,286047002.2,N
1538548495.8,286047000.0,N
1538548515.6,286047000.6,N
1538548535.4,286046998.3,N
1538548555.3,286047001.1,N
1538548575.1,286047002.0,N
1538548595.8,286047003.9,N
1538548615.7,286047001.7,N
1538548635.5,286047003.0,N
1538548655.4,286047004.2,N
1538548675.2,286047004.0,N
1538548695.0,286047004.9,N
1538548695.9,286047004.9,N
1538548715.8,286047004.6,N
1538548735.6,286047004.2,N
1538548755.4,286047005.8,N
1538548775.3,286047002.0,N
1538548795.1,286047002.1,N
1538548815.8,286047000.1,N
1538548835.7,286047000.4,N
1538548855.5,286047002.0,N
1538548875.4,286047000.2,N
1538548895.2,286047002.3,N
1538548915.0,286047000.9,N
1538548915.9,286047000.9,N
1538548935.8,286047001.9,N
1538548955.6,286047002.6,N
1538548975.5,286047001.6,N
1538548995.3,286047002.7,N
1538549015.1,286047000.6,N
1538549035.9,286047000.5,N
1538549055.7,286047000.3,N
1538549075.5,286047000.2,N
1538549095.4,286047000.1,N
1538549115.2,286046999.7,N
1538549135.1,286047001.1,N
1538549136.0,286047001.1,N
1538549155.8,286047002.0,N
1538549175.6,286047000.3,N
1538549195.5,286046999.8,N
1538549215.3,286047001.0,N
1538549235.1,286046999.2,N
1538549255.9,286047001.0,N
1538549275.7,286046998.6,N
1538549295.6,286047000.5,N
1538549315.4,286047003.8,N
1538549335.2,286047001.8,N
1538549355.1,286047003.9,Y
1538549356.0,286047003.9,P
1538549375.8,286047003.9,N
1538549395.6,286047003.7,N
1538549415.5,286047001.6,N
1538549435.3,286047002.7,N
1538549455.2,286046998.1,N
1538549475.9,286047001.2,N
1538549495.7,286046998.5,N
1538549515.6,286046999.5,N
1538549535.4,286046999.2,N
1538549555.2,286046996.5,N
1538549575.1,286047002.3,N
1538549576.0,286047002.3,N
1538549595.8,286047001.4,N
1538549615.6,286047000.7,N
1538549635.5,286046999.0,N
1538549655.3,286047001.1,N
1538549675.2,286046998.7,N
1538549695.9,286047000.8,N
1538549715.7,286046998.9,N
1538549735.6,286046999.2,N
1538549755.4,286046999.0,N
1538549775.2,286047002.4,N
1538549795.1,286047000.8,N
1538549796.0,286047000.8,N
1538549815.8,286047000.7,N
1538549835.7,286046998.2,N
1538549855.5,286047000.8,N
1538549875.3,286047000.8,N
1538549895.2,286047002.2,N
1538549915.9,286047001.9,N
1538549935.7,286047002.6,N
1538549955.6,286047001.2,N
1538549975.4,286047000.8,N
1538549995.2,286046998.5,N
